Akron, CO

6:18 PM MDT on April 27, 2017 (GMT -0600)
Akron-Washington County

Weather History for KAKO - September, 2014

Change the Weather History Date:

Monday, September 15, 2014

  Actual Average Record
Temperature  
Mean Temperature 56 °F 63 °F  
Max Temperature 66 °F 77 °F 94 °F (1955)
Min Temperature 46 °F 49 °F 35 °F (1947)
Degree Days  
Heating Degree Days 9    
Month to date heating degree days 89  
Cooling Degree Days 0    
Month to date cooling degree days 29  
Growing Degree Days 6 (Base 50)    
Moisture  
Dew Point 48 °F    
Average Humidity 76    
Maximum Humidity 100    
Minimum Humidity 52    
Precipitation  
Precipitation T in 0.04 in 0.58 in (1966)
Month to date precipitation 0.31 0.63  
Year to date precipitation 15.91 14.12  
Sea Level Pressure  
Sea Level Pressure 30.23 in    
Wind  
Wind Speed 14 mph (North)    
Max Wind Speed 22 mph    
Max Gust Speed 28 mph    
Visibility 5 miles    
Events Fog , Rain    
T = Trace of Precipitation, MM = Missing Value Source: NWS Daily Summary

Daily Weather History Graph

Daily Weather History Graph

Search for Another Location

Airport or City:

Trip Planner

Search our weather history database for the weather conditions in past years. The results will help you decide how hot, cold, wet, or windy it might be!

Date:

Astronomy

Sep. 15, 2014 Rise Set
Actual Time 6:33 AM MDT 7:01 PM MDT
Civil Twilight 6:06 AM MDT 7:28 PM MDT
Nautical Twilight 5:34 AM MDT 8:00 PM MDT
Astronomical Twilight 5:01 AM MDT 8:33 PM MDT
Moon 11:46 PM MDT (9/15) 1:36 PM MDT (9/15)
Length of Visible Light 13h 22m
Length of Day
12h 27m
Waning Gibbous, 53% of the Moon is Illuminated
Sep 15
Waning Gibbous
Sep 15
Last Quarter
Sep 24
New
Oct 1
First Quarter
Oct 8
Full

Hourly Weather History & Observations

Time (MDT) Temp. Windchill Dew Point Humidity Pressure Visibility Wind Dir Wind Speed Gust Speed Precip Events Conditions
12:41 AM 53.1 °F - 52.0 °F 96% 30.10 in 9.0 mi North 17.3 mph - N/A   Scattered Clouds
12:51 AM 53.6 °F - 51.8 °F 94% 30.11 in 7.0 mi North 18.4 mph - N/A   Mostly Cloudy
12:53 AM 53.1 °F - 52.0 °F 96% 29.97 in 6.0 mi North 17.3 mph - N/A   Mostly Cloudy
1:53 AM 52.0 °F - 50.0 °F 93% 30.01 in 10.0 mi North 16.1 mph - N/A   Overcast
2:20 AM 51.1 °F - 50.0 °F 96% 30.17 in 1.8 mi North 16.1 mph - N/A   Overcast
2:26 AM 51.1 °F - 51.1 °F 100% 30.16 in 1.0 mi North 15.0 mph - N/A   Overcast
2:41 AM 51.1 °F - 51.1 °F 100% 30.17 in 0.8 mi North 17.3 mph - N/A   Mist
2:53 AM 51.1 °F - 50.0 °F 96% 30.04 in 1.0 mi North 16.1 mph - N/A   Mist
3:14 AM 50.0 °F - 48.9 °F 96% 30.19 in 1.2 mi North 18.4 mph - 0.00 in Rain Light Rain
3:22 AM 50.0 °F - 48.9 °F 96% 30.19 in 1.5 mi North 18.4 mph - 0.00 in Rain Light Rain
3:53 AM 50.0 °F - 48.9 °F 96% 30.06 in 1.8 mi North 18.4 mph 23.0 mph 0.00 in Rain Light Rain
4:51 AM 48.2 °F - 48.2 °F 100% 30.23 in 1.0 mi North 13.8 mph - 0.00 in   Overcast
4:53 AM 48.9 °F - 48.9 °F 100% 30.11 in 1.0 mi North 13.8 mph - 0.00 in   Overcast
5:02 AM 48.9 °F - 48.0 °F 97% 30.24 in 0.5 mi North 11.5 mph - N/A Fog Fog
5:41 AM 48.0 °F - 46.9 °F 96% 30.26 in 1.0 mi NNW 15.0 mph - N/A   Mist
5:45 AM 46.9 °F - 46.0 °F 97% 30.27 in 1.5 mi NNW 15.0 mph - N/A   Overcast
5:49 AM 46.4 °F 40.7 °F 46.4 °F 100% 30.27 in 3.0 mi North 12.7 mph - N/A   Overcast
5:53 AM 46.0 °F 39.9 °F 46.0 °F 100% 30.17 in 2.5 mi NNW 13.8 mph - N/A   Overcast
5:58 AM 46.0 °F 39.6 °F 46.0 °F 100% 30.28 in 1.2 mi NNW 15.0 mph - N/A   Overcast
6:06 AM 46.0 °F 40.6 °F 46.0 °F 100% 30.28 in 1.0 mi NNW 11.5 mph - N/A   Overcast
6:16 AM 46.0 °F 40.6 °F 46.0 °F 100% 30.28 in 1.5 mi NNW 11.5 mph - N/A   Overcast
6:25 AM 46.0 °F 40.6 °F 46.0 °F 100% 30.29 in 2.0 mi NNW 11.5 mph - N/A   Overcast
6:33 AM 46.0 °F 40.6 °F 46.0 °F 100% 30.29 in 1.8 mi NNW 11.5 mph - N/A   Overcast
6:43 AM 46.9 °F - 46.0 °F 97% 30.30 in 1.0 mi NNW 11.5 mph - N/A   Overcast
6:53 AM 46.0 °F 40.2 °F 46.0 °F 100% 30.22 in 1.2 mi NNW 12.7 mph - N/A   Overcast
6:57 AM 46.0 °F 40.6 °F 46.0 °F 100% 30.30 in 0.8 mi NNW 11.5 mph - N/A   Mist
7:09 AM 46.0 °F 39.6 °F 46.0 °F 100% 30.30 in 1.2 mi NNW 15.0 mph - N/A   Overcast
7:17 AM 46.9 °F - 46.0 °F 97% 30.31 in 0.8 mi NNW 12.7 mph - N/A   Mist
7:29 AM 46.0 °F 40.6 °F 46.0 °F 100% 30.31 in 1.5 mi NNW 11.5 mph - N/A   Overcast
7:46 AM 46.0 °F 39.9 °F 46.0 °F 100% 30.31 in 1.0 mi NNW 13.8 mph - N/A   Overcast
7:53 AM 46.9 °F - 46.0 °F 97% 30.24 in 0.8 mi NNW 12.7 mph - N/A   Mist
8:10 AM 46.9 °F - 46.0 °F 97% 30.32 in 1.0 mi NNW 11.5 mph - N/A   Mist
8:26 AM 46.0 °F 40.2 °F 46.0 °F 100% 30.32 in 0.5 mi NNW 12.7 mph - N/A Fog Fog
8:53 AM 46.9 °F - 46.0 °F 97% 30.26 in 0.8 mi NNW 13.8 mph - N/A   Mist
8:56 AM 46.9 °F - 46.9 °F 100% 30.33 in 1.2 mi North 13.8 mph - N/A   Overcast
8:58 AM 46.9 °F - 46.9 °F 100% 30.33 in 2.0 mi North 15.0 mph - N/A   Overcast
9:07 AM 48.0 °F - 46.9 °F 96% 30.33 in 4.0 mi North 15.0 mph - N/A   Overcast
9:48 AM 51.8 °F - 48.2 °F 88% 30.34 in 10.0 mi NNW 11.5 mph - N/A   Overcast
9:53 AM 51.1 °F - 48.0 °F 89% 30.26 in 10.0 mi North 11.5 mph - N/A   Overcast
10:06 AM 52.0 °F - 48.0 °F 86% 30.35 in 10.0 mi North 9.2 mph - N/A   Mostly Cloudy
10:39 AM 55.0 °F - 48.0 °F 77% 30.34 in 10.0 mi ENE 5.8 mph - N/A   Overcast
10:53 AM 55.9 °F - 48.0 °F 75% 30.24 in 10.0 mi NNE 6.9 mph - N/A   Overcast
11:09 AM 57.0 °F - 48.0 °F 72% 30.34 in 10.0 mi ENE 8.1 mph - N/A   Overcast
11:53 AM 57.0 °F - 46.9 °F 69% 30.26 in 10.0 mi East 5.8 mph - N/A   Mostly Cloudy
12:09 PM 57.0 °F - 46.9 °F 69% 30.34 in 10.0 mi Variable 3.5 mph - N/A   Scattered Clouds
12:27 PM 60.1 °F - 48.0 °F 64% 30.34 in 10.0 mi SE 6.9 mph - N/A   Mostly Cloudy
12:44 PM 60.1 °F - 46.9 °F 62% 30.33 in 10.0 mi SE 6.9 mph - N/A   Scattered Clouds
12:53 PM 61.0 °F - 46.9 °F 60% 30.25 in 10.0 mi Variable 3.5 mph - N/A   Partly Cloudy
1:53 PM 64.0 °F - 46.9 °F 54% 30.23 in 10.0 mi ESE 12.7 mph - N/A   Clear
2:53 PM 64.0 °F - 46.9 °F 54% 30.21 in 10.0 mi SSE 11.5 mph 25.3 mph N/A   Clear
3:53 PM 64.9 °F - 48.9 °F 56% 30.19 in 10.0 mi SSE 9.2 mph 23.0 mph N/A   Clear
4:53 PM 66.0 °F - 50.0 °F 56% 30.17 in 10.0 mi SSE 10.4 mph - N/A   Clear
5:53 PM 64.0 °F - 50.0 °F 60% 30.19 in 10.0 mi South 17.3 mph 25.3 mph N/A   Clear
6:53 PM 60.1 °F - 50.0 °F 69% 30.19 in 10.0 mi SSE 12.7 mph - N/A   Clear
7:53 PM 57.0 °F - 50.0 °F 77% 30.20 in 10.0 mi SSE 13.8 mph - N/A   Clear
8:53 PM 55.0 °F - 50.0 °F 83% 30.20 in 10.0 mi SSE 13.8 mph 24.2 mph N/A   Clear
9:53 PM 54.0 °F - 50.0 °F 86% 30.19 in 10.0 mi South 17.3 mph 24.2 mph N/A   Clear
10:53 PM 54.0 °F - 50.0 °F 86% 30.17 in 10.0 mi South 16.1 mph - N/A   Clear
11:53 PM 53.1 °F - 50.0 °F 89% 30.15 in 10.0 mi South 12.7 mph - N/A   Clear